Location: Gunung Kajang
(2.4167°N, 113.7167°E)
Time: 15:23:22
(UTC+00:00)

Cosmos 1821 Rocket - Pass Details

Date: 29 May 2022
Orbit: 946 x 1004 km, 82.9° (Epoch: 28 June)

Event Time Altitude Azimuth Distance (km) Brightness Sun altitude
Rises 20:57:05 0° 342° (NNW) 3,708 7.1 -18.8°
Reaches altitude 10° 20:59:46 10° 335° (NNW) 2,756 6.3 -18.2°
Maximum altitude 21:05:36 40° 268° (W) 1,427 4.4 -16.9°
Drops below altitude 10° 21:11:24 10° 200° (SSW) 2,732 5.9 -15.6°
Enters shadow 21:12:53 - 195° (SSW) 3,251 6.4 -15.2°
